• In France
  • List of Countries
  • For 7 days
  • Water Temperature
  • Satellite Maps
  • Weather Map
  • Weather Widgets
  • user-avatar
    Login

    Hourly Weather Nikoia

    Today, 20 May, Sunday

    Time Temperature Precipitation Wind Pressure Humidity
    00:00 +27°C° 0 mm 1 mps 745 mmHg 84%
    01:00 +27°C° 0.2 mm 1 mps 745 mmHg 84%
    02:00 +27°C° 0.2 mm 1 mps 745 mmHg 85%
    03:00 +27°C° 0.2 mm 1 mps 745 mmHg 86%
    04:00 +27°C° 0.8 mm 1 mps 745 mmHg 85%
    05:00 +27°C° 0.8 mm 1 mps 745 mmHg 84%
    06:00 +27°C° 0.8 mm 1 mps 745 mmHg 83%
    07:00 +29°C° 1.5 mm 1 mps 746 mmHg 76%
    08:00 +30°C° 1.5 mm 1 mps 746 mmHg 69%
    09:00 +32°C° 1.5 mm 1 mps 746 mmHg 62%
    10:00 +33°C° 1.3 mm 1 mps 746 mmHg 60%
    11:00 +34°C° 1.3 mm 2 mps 746 mmHg 59%
    12:00 +35°C° 1.3 mm 2 mps 745 mmHg 57%
    13:00 +34°C° 1.1 mm 3 mps 745 mmHg 60%
    14:00 +33°C° 1.1 mm 3 mps 744 mmHg 64%
    15:00 +32°C° 1.1 mm 4 mps 744 mmHg 68%
    16:00 +31°C° 1.3 mm 3 mps 744 mmHg 71%
    17:00 +30°C° 1.3 mm 3 mps 744 mmHg 74%
    18:00 +29°C° 1.3 mm 3 mps 744 mmHg 77%
    19:00 +29°C° 1.1 mm 2 mps 745 mmHg 79%
    20:00 +28°C° 1.1 mm 2 mps 745 mmHg 81%
    21:00 +28°C° 1.1 mm 2 mps 746 mmHg 83%
    22:00 +28°C° 0.8 mm 2 mps 746 mmHg 83%
    23:00 +27°C° 0.8 mm 2 mps 746 mmHg 84%

    Tomorrow, 21 May, Monday

    Time Temperature Precipitation Wind Pressure Humidity
    00:00 +27°C° 0.8 mm 2 mps 745 mmHg 85%
    01:00 +27°C° 0.1 mm 2 mps 745 mmHg 85%
    02:00 +27°C° 0.1 mm 1 mps 745 mmHg 86%
    03:00 +27°C° 0.1 mm 1 mps 744 mmHg 86%
    04:00 +27°C° 0 mm 1 mps 744 mmHg 86%
    05:00 +27°C° 0 mm 1 mps 744 mmHg 86%
    06:00 +27°C° 0 mm 1 mps 745 mmHg 86%
    07:00 +28°C° 0.4 mm 1 mps 745 mmHg 82%
    08:00 +29°C° 0.4 mm 1 mps 745 mmHg 77%
    09:00 +28°C° 0.4 mm 0 mps 746 mmHg 73%
    10:00 +30°C° 0.9 mm 1 mps 746 mmHg 69%
    11:00 +31°C° 0.9 mm 1 mps 745 mmHg 66%
    12:00 +32°C° 0.9 mm 1 mps 745 mmHg 62%
    13:00 +32°C° 0.9 mm 2 mps 745 mmHg 64%
    14:00 +32°C° 0.9 mm 2 mps 744 mmHg 65%
    15:00 +31°C° 0.9 mm 2 mps 744 mmHg 67%
    16:00 +30°C° 0.8 mm 2 mps 744 mmHg 71%
    17:00 +30°C° 0.8 mm 2 mps 744 mmHg 75%
    18:00 +29°C° 0.8 mm 2 mps 744 mmHg 79%
    19:00 +28°C° 0.9 mm 2 mps 745 mmHg 81%
    20:00 +28°C° 0.9 mm 1 mps 745 mmHg 83%
    21:00 +28°C° 0.9 mm 1 mps 746 mmHg 84%
    22:00 +27°C° 0.9 mm 1 mps 746 mmHg 85%
    23:00 +27°C° 0.9 mm 1 mps 745 mmHg 85%

    Day after tomorrow, 22 May, Tuesday

    Time Temperature Precipitation Wind Pressure Humidity
    00:00 +27°C° 0.9 mm 1 mps 745 mmHg 86%
    01:00 +27°C° 0.3 mm 1 mps 745 mmHg 86%
    02:00 +27°C° 0.3 mm 1 mps 744 mmHg 87%
    03:00 +26°C° 0.3 mm 1 mps 744 mmHg 88%
    04:00 +26°C° 0.2 mm 1 mps 744 mmHg 87%
    05:00 +27°C° 0.2 mm 1 mps 744 mmHg 87%
    06:00 +27°C° 0.2 mm 1 mps 745 mmHg 87%
    07:00 +28°C° 0.6 mm 1 mps 745 mmHg 80%
    08:00 +29°C° 0.6 mm 1 mps 745 mmHg 74%
    09:00 +31°C° 0.6 mm 1 mps 746 mmHg 68%
    10:00 +31°C° 1 mm 2 mps 746 mmHg 66%
    11:00 +32°C° 1 mm 2 mps 745 mmHg 65%
    12:00 +34°C° 1 mm 3 mps 745 mmHg 63%
    13:00 +33°C° 1.4 mm 3 mps 745 mmHg 66%
    14:00 +31°C° 1.4 mm 3 mps 744 mmHg 69%
    15:00 +31°C° 1.4 mm 3 mps 744 mmHg 72%
    16:00 +30°C° 0.4 mm 3 mps 744 mmHg 76%
    17:00 +29°C° 0.4 mm 3 mps 744 mmHg 80%
    18:00 +28°C° 0.4 mm 2 mps 744 mmHg 84%
    19:00 +28°C° 1.1 mm 2 mps 745 mmHg 85%
    20:00 +28°C° 1.1 mm 2 mps 746 mmHg 86%
    21:00 +27°C° 1.1 mm 2 mps 746 mmHg 86%
    22:00 +27°C° 0.4 mm 2 mps 746 mmHg 87%
    23:00 +27°C° 0.4 mm 2 mps 746 mmHg 87%

    23 May, Wednesday

    Time Temperature Precipitation Wind Pressure Humidity
    00:00 +27°C° 0.4 mm 2 mps 746 mmHg 87%
    01:00 +26°C° 0.4 mm 2 mps 746 mmHg 88%
    02:00 +26°C° 0.4 mm 1 mps 745 mmHg 89%
    03:00 +26°C° 0.4 mm 1 mps 745 mmHg 90%
    04:00 +26°C° 0.2 mm 1 mps 745 mmHg 90%
    05:00 +26°C° 0.2 mm 1 mps 745 mmHg 90%
    06:00 +26°C° 0.2 mm 1 mps 745 mmHg 90%
    07:00 +27°C° 0 mm 1 mps 746 mmHg 82%
    08:00 +29°C° 0 mm 1 mps 746 mmHg 75%
    09:00 +30°C° 0 mm 1 mps 747 mmHg 68%
    10:00 +31°C° 0.2 mm 2 mps 746 mmHg 63%
    11:00 +34°C° 0.2 mm 2 mps 746 mmHg 58%
    12:00 +35°C° 0.2 mm 2 mps 746 mmHg 53%
    13:00 +34°C° 0.7 mm 3 mps 745 mmHg 57%
    14:00 +34°C° 0.7 mm 3 mps 745 mmHg 61%
    15:00 +33°C° 0.7 mm 3 mps 744 mmHg 66%
    16:00 +31°C° 0.8 mm 3 mps 745 mmHg 70%
    17:00 +30°C° 0.8 mm 2 mps 745 mmHg 75%
    18:00 +29°C° 0.8 mm 2 mps 745 mmHg 80%
    19:00 +28°C° 0.5 mm 2 mps 746 mmHg 81%
    20:00 +28°C° 0.5 mm 1 mps 746 mmHg 83%
    21:00 +28°C° 0.5 mm 1 mps 747 mmHg 84%
    22:00 +28°C° 0 mm 1 mps 747 mmHg 85%
    23:00 +27°C° 0 mm 1 mps 746 mmHg 85%

    24 May, Thursday

    Time Temperature Precipitation Wind Pressure Humidity
    00:00 +27°C° 0 mm 1 mps 746 mmHg 86%
    01:00 +27°C° 0.1 mm 1 mps 746 mmHg 87%
    02:00 +27°C° 0.1 mm 1 mps 745 mmHg 88%
    03:00 +26°C° 0.1 mm 1 mps 745 mmHg 89%
    04:00 +27°C° 0.1 mm 1 mps 745 mmHg 88%
    05:00 +27°C° 0.1 mm 1 mps 746 mmHg 88%
    06:00 +27°C° 0.1 mm 2 mps 746 mmHg 87%
    07:00 +28°C° 0.2 mm 2 mps 747 mmHg 80%
    08:00 +30°C° 0.2 mm 2 mps 747 mmHg 73%
    09:00 +31°C° 0.2 mm 2 mps 747 mmHg 66%
    10:00 +32°C° 0.5 mm 2 mps 747 mmHg 63%
    11:00 +34°C° 0.5 mm 3 mps 746 mmHg 61%
    12:00 +34°C° 0.5 mm 3 mps 746 mmHg 58%
    13:00 +34°C° 1.1 mm 3 mps 745 mmHg 61%
    14:00 +33°C° 1.1 mm 3 mps 745 mmHg 65%
    15:00 +33°C° 1.1 mm 3 mps 744 mmHg 68%
    16:00 +31°C° 1.2 mm 3 mps 745 mmHg 72%
    17:00 +30°C° 1.2 mm 2 mps 745 mmHg 77%
    18:00 +29°C° 1.2 mm 2 mps 745 mmHg 82%
    19:00 +28°C° 1.4 mm 2 mps 746 mmHg 83%
    20:00 +28°C° 1.4 mm 1 mps 746 mmHg 85%
    21:00 +28°C° 1.4 mm 1 mps 747 mmHg 87%
    22:00 +27°C° 1.3 mm 1 mps 746 mmHg 87%
    23:00 +27°C° 1.3 mm 1 mps 746 mmHg 87%

    25 May, Friday

    Time Temperature Precipitation Wind Pressure Humidity
    00:00 +27°C° 1.3 mm 1 mps 746 mmHg 87%
    01:00 +27°C° 0.9 mm 1 mps 746 mmHg 87%
    02:00 +27°C° 0.9 mm 1 mps 745 mmHg 86%
    03:00 +27°C° 0.9 mm 1 mps 745 mmHg 86%
    04:00 +27°C° 1 mm 1 mps 745 mmHg 86%
    05:00 +27°C° 1 mm 1 mps 745 mmHg 86%
    06:00 +27°C° 1 mm 1 mps 746 mmHg 85%
    07:00 +27°C° 1 mm 1 mps 746 mmHg 82%
    08:00 +28°C° 1 mm 1 mps 746 mmHg 80%
    09:00 +29°C° 1 mm 1 mps 747 mmHg 77%
    10:00 +29°C° 0.8 mm 1 mps 746 mmHg 75%
    11:00 +30°C° 0.8 mm 2 mps 746 mmHg 72%
    12:00 +31°C° 0.8 mm 2 mps 746 mmHg 70%
    13:00 +30°C° 1 mm 2 mps 745 mmHg 72%
    14:00 +30°C° 1 mm 3 mps 745 mmHg 73%
    15:00 +30°C° 1 mm 3 mps 744 mmHg 74%
    16:00 +29°C° 0.9 mm 2 mps 744 mmHg 78%
    17:00 +28°C° 0.9 mm 2 mps 745 mmHg 81%
    18:00 +28°C° 0.9 mm 2 mps 745 mmHg 85%
    19:00 +27°C° 0.5 mm 2 mps 745 mmHg 86%
    20:00 +27°C° 0.5 mm 2 mps 746 mmHg 88%
    21:00 +27°C° 0.5 mm 2 mps 746 mmHg 89%
    22:00 +27°C° 0.4 mm 1 mps 746 mmHg 90%
    23:00 +26°C° 0.4 mm 1 mps 746 mmHg 90%
    Show more